Regional Weather Roundup
Issued by NWS Wakefield, VA

Home | Current Version | Previous Version | Text Only | Print | Product List | Glossary Off
Versions: 1 2 3 4 5 6 7 8 9 10 11 12 13 14 15 16 17 18 19 20 21 22 23 24 25 26 27

000
ASUS41 KAKQ 141615
RWRAKQ

REGIONAL WEATHER ROUNDUP
NATIONAL WEATHER SERVICE WAKEFIELD VA
1100 AM EST THU DEC 14 2017

Note: "fair" indicates few or no clouds below 12,000 feet with no
significant weather and/or obstructions to visibility. * = Denotes
station may not report precipitation (e.g., rain,snow,etc.),
thunder or fog.

VAZ042-051-052>054-056-141700-
NORTHERN VIRGINIA

CITY           SKY/WX    TMP DP  RH WIND       PRES   REMARKS
WASH NATIONAL  CLOUDY    42  22  44 NW24G32   29.84R
DULLES         PTSUNNY   37  20  50 NW15G28   29.86R
FORT BELVOIR   CLOUDY    41  21  45 NW17G24   29.84R
QUANTICO       CLOUDY    44  21  40 NW20G31   29.86R
FREDERICKSBRG* MOSUNNY   45  24  44 N8G16     29.82R
STAFFORD*      MOSUNNY   42  22  44 NW9G18    29.87R
WARRENTON      CLOUDY    43  17  34 NW13      29.84R
CULPEPER*      CLOUDY    44  17  33 NW7       29.85R
MANASSAS*      CLOUDY    40  23  50 N17       29.86R
LEESBURG*      CLOUDY    36  23  60 N16G22    29.87R
WINCHESTER     CLOUDY    34  19  55 NW14G24   29.86R WCI  24
FRONT ROYAL*   CLOUDY    36  18  48 NW7       29.84R
LURAY*         PTSUNNY   39  21  48 NW10      29.83R
$$

VAZ048-049-060>072-079>083-141700-
CENTRAL AND SOUTH CENTRAL VIRGINIA

CITY           SKY/WX    TMP DP  RH WIND       PRES   REMARKS
RICHMOND       MOSUNNY   51  23  33 NW13      29.82R
CHESTERFIELD*  NOT AVBL
PETERSBURG*    SUNNY     50  21  32 W13       29.82R
HANOVER        MOSUNNY   44  22  41 W6        29.84R
TAPPAHANNOCK*  PTSUNNY   44  24  45 CALM      29.83R
QUINTON*       FAIR      46  24  43 NW9G17    29.81R
CHARLOTTSVILLE PTSUNNY   45  20  36 NW10      29.82R
GORDONSVILLE*  SUNNY     43  22  42 NW10G21   29.82R
ORANGE*        PTSUNNY   43  21  42 W13       29.82R
LOUISA*        SUNNY     46  20  36 NW13G20   29.85R
BUMPASS*       CLOUDY    48  20  32 NW10      29.81R
FARMVILLE*     SUNNY     50  27  40 W6        29.80R
CREWE*         FAIR      48  26  41 NW10G18   29.81R
FORT PICKETT*  NOT AVBL
CHASE CITY*    FAIR      48  26  41 W5        29.81S
CLARKSVILLE*   FAIR      50  27  40 SW12G18   29.82R
SOUTH HILL*    SUNNY     49  27  41 W10G17    29.87R
LAWRENCEVILLE* FAIR      51  24  34 W6        29.81R
EMPORIA*       SUNNY     50  27  40 SW10      29.83R
$$

VAZ088>098-141700-
SOUTHEAST VIRGINIA

CITY           SKY/WX    TMP DP  RH WIND       PRES   REMARKS
NORFOLK        SUNNY     51  25  36 VRB5      29.79R
VIRGINIA BEACH MOSUNNY   51  23  33 W9        29.79R
NORFOLK NAVAL  MOSUNNY   50  27  40 W15       29.82R
WEST POINT*    PTSUNNY  N/A N/A N/A W8        29.83R
SALUDA*        CLOUDY    45  25  45 W13       29.80R
NEWPORT NEWS   SUNNY     50  25  37 W13       29.80R
LANGLEY AFB    MOSUNNY   49  26  41 W12       29.80R
FORT EUSTIS    SUNNY     50  26  39 W12       29.78R
WILLIAMSBURG*  MOSUNNY   52  27  37 NW9G20    29.82R
HR EXEC AP*    FAIR      52  26  36 W7        29.81R
FRANKLIN*      SUNNY     50  25  37 W13G18    29.82R
US460-WAKEFLD  SUNNY     50  26  39 W9        29.81R
$$

VAZ020-022-025-037-045-141700-
WEST CENTRAL AND SOUTHWEST VIRGINIA

CITY           SKY/WX    TMP DP  RH WIND       PRES   REMARKS
STAUNTON*      PTSUNNY   38  19  46 W9        29.85R
WAYNESBORO*    MOSUNNY   37  19  48 NW8G18    29.81R
HOT SPRINGS VA CLOUDY    25  16  67 NW18G28   29.73R WCI  12
LYNCHBURG      MOSUNNY   44  22  41 NW8       29.82R
DANVILLE       SUNNY     50  26  39 SW10      29.84R
SOUTH BOSTON*  FAIR      51  23  34 W7        29.82R
MARTINSVILLE   SUNNY     48  25  39 NW14      29.85R
ROANOKE        PTSUNNY   42  24  49 NW13G22   29.86R
BLACKSBURG     CLOUDY    37  25  61 W9G22     29.84R
DUBLIN*        CLOUDY    40  25  53 W21       29.84R
MARION*        CLOUDY    38  22  52 W14G20    29.86R
HILLSVILLE*    CLOUDY    37  25  60 NW13      29.80R
RICHLANDS*     CLOUDY    34  25  69 NW6       29.84R
WISE*          CLOUDY    32  27  80 NW6       29.88R
ABINGDON*      CLOUDY    39  27  60 NW8       29.88R
$$

MDZ021>025-VAZ099-100-141700-
SOUTHERN MARYLAND AND THE DELMARVA PENINSULA

CITY           SKY/WX    TMP DP  RH WIND       PRES   REMARKS
PATUXENT RIVER MOSUNNY   45  24  43 NW21G29   29.80R
BAY BRIDGE APT CLOUDY    39  28  65 N17G25    29.81R
LEONARDTOWN    SUNNY     45  23  42 W10G17    29.81R
DOVER          CLOUDY    39  30  70 NW18      29.77R
GEORGETOWN     PTSUNNY   45  26  47 NW13G23   29.78R
EASTON         PTSUNNY   41  25  52 W12G17    29.84R
CAMBRIDGE      MOSUNNY   45  25  45 NW16G26   29.80R
SALISBURY      SUNNY     45  25  45 W17G29    29.77R
OCEAN CITY     SUNNY     46  27  47 NW14G31   29.77R
WALLOPS ISLAND PTSUNNY   46  26  45 W17G30    29.78R
ACCOMACK*      MOSUNNY   47  28  48 NW17G24   29.79R
$$

NCZ012>017-030>032-141700-
NORTH CENTRAL AND EASTERN NORTH CAROLINA

CITY           SKY/WX    TMP DP  RH WIND       PRES   REMARKS
ROANOKE RAPIDS FAIR      52  28  40 W14       29.84R
RALEIGH        MOSUNNY   49  24  37 W6        29.86R
ELIZABETH CITY SUNNY     51  31  46 W10       29.83R
AHOSKIE*       SUNNY     49  26  40 SW3       29.83S
EDENTON*       SUNNY     50  30  45 W9        29.85R
CURRITUCK*     SUNNY     48  27  43 W13G20    29.82R
KILL DEVIL HLS SUNNY     46  29  51 W9        29.83R
MANTEO         SUNNY     49  29  46 NW7       29.84R
CAPE HATTERAS  SUNNY     50  35  56 W10G18    29.85R
TARBORO*       NOT AVBL
GOLDSBORO      SUNNY     52  26  36 W10       29.85R
WASHINGTON     SUNNY     50  25  38 W10       29.86R
GREENVILLE     SUNNY     50  27  40 W9        29.88S
NEW BERN       SUNNY     51  29  42 W8        29.87R
WILMINGTON     SUNNY     53  29  39 W10       29.89S
$$

VAZ048-141700-
ELSEWHERE

CITY           SKY/WX    TMP DP  RH WIND       PRES   REMARKS
HARRISBURG PA  SUNNY     30  18  60 NW17      29.82R WCI  18
BALTIMORE      MOSUNNY   37  24  59 NW15G26   29.82R
ANNAPOLIS      CLOUDY    39  27  62 NW10G28   29.83R
ANDREWS AFB    CLOUDY    39  23  51 NW16      29.85R
PHILADELPHIA   MOSUNNY   33  23  66 NW20G30   29.78R WCI  21
HENDERSON NC   SUNNY     47  22  37 SW9       29.84R
GREENSBORO     MOSUNNY   48  24  39 W9        29.84R
ROCKY MOUNT    SUNNY     49  27  42 W6        29.86R
$$

VAZ100-141700-
MARINE

STATION/POSITION TIME  TEMP    WIND        PRES    WAVE   SWELL
                       AIR SEA DIR/SP/G            HT/PER HT/PER
                 (UTC) (F)     (DEG/KT/KT) (MB)    (FT/S) (FT/S)
BRANDYWINE LGT   1542   41     320/ 20/ 26 1007.7R
CAPE MAY NJ      1548   41 38  310/ 20/ 26 1007.0R
LEWES DE         1548   43 44  300/ 26/ 30 1007.4R
15NM E FENWICK I 1550   45 51  290/ 23/ 29 1007.2R   7/ 8   5/ 8
OCEAN-CITY-INLET 1548   44 43  310/ 14/ 17 1008.2R
WACHAPREAGUE VA  1548   49 36  280/  2/ 11 1008.4R
THOMAS POINT MD  1600   40 45  320/ 18/ 21   N/A
GOOSES REEF MD   1600   44 46  310/ 17/ 23 1010.0    2/ 3
COVE POINT MD    1548   43     330/ 21/ 32 1010.0R
SOLOMONS ISLAND  1548   44 46  320/ 17/ 23 1008.9R
BISHOPS HEAD MD  1548   42 35  300/ 18/ 21 1009.5R
PINEY POINT MD   1548          330/ 12/ 13   N/A
POTOMAC MD       1600   43 46  300/ 14/ 17 1008.9    1/ 2
CAMBRIDGE MD     1542   44 41              1009.8R
LEWISETTA VA     1548   43 42  330/ 15/ 21 1009.8R
RAPPAHANNOCK LGT 1548          280/ 19/ 22 1009.3R
STINGRAY PT      1600   45 44  320/ 16/ 19 1009.2    1/ 2
YORK RVR RNG VA  1548   48     300/ 15/ 18 1009.5R
YORKTOWN VA      1548   48 47  260/  9/ 12 1008.8R
JAMESTOWN VA     1600      45  330/  8/ 10   N/A     1
DOMINION TERM VA 1548   47     270/ 14/ 18 1009.1R
KIPTOPEKE VA     1548      44  290/ 18/ 22   N/A
CAPE HENRY VA    1548   49     250/ 12/ 16   N/A
WILLOUBY STN VA  1548          260/ 13/ 15 1008.8R
S CRANEY ISL VA  1548   49     250/  9/ 18 1008.7R
CAPE HENRY BUOY  1600      53                N/A     4/ 4
1ST LANDING BUOY 1600   47 49  280/ 17/ 21 1008.9    2/ 3
CAPE CHARLES BUO 1551      51                N/A     3/ 4
64NM E OF VA BCH 1550   52 61  270/ 23/ 27 1008.2R   7/ 6
DUCK PIER NC     1548   45 52  250/ 12/ 16 1009.5R
44100 DUCK FRF   1545      54                N/A     3/ 3
44056 DUCK FRF   1600      55                N/A     1/ 7
OREGON INLET NC  1542   48 41  270/  8/ 12 1010.2R
HATTERAS NC      1548   48 50  270/ 14/ 19 1010.3R
DIAMOND SHLS NC  1600   55 73  270/ 17/ 23 1011.0
CAPE LOOKOUT NC  1600          260/ 13/ 16 1011.7R
$$




USA.gov is the U.S. government's official web portal to all federal, state and local government web resources and services.